loading
DOY 203 | 2024-07-21T10:19:49Z
Showing default

TIANHUI 5C, 60211

Orbit data source: Space-Track

TIANHUI 5C, 60211 is a payload satellite owned by G. Cehui dili (CN) in SSO that was launched on Thu, 04 Jul 2024 UTC via a Chang Zheng 6A launch vehicle from the Taiyaun Space Center, China (TSC). Payloads include a variety of satellites, spacecraft, and rockets equipped with specific instruments for various scientific and technological missions. These include communications satellites like Starlink; space stations such as the ISS; scientific satellites like the Hubble; Earth observation satellites from companies like Planet Labs, Umbra, and HawkEye 360; GPS; miniature CubeSats for education and research; and military/defense satellites.

Loading next visibility...
Loading greatness...
TIANHUI 5C details
NORAD ID60211
COSPAR ID
2024-126A
Orbit
SSO
Last TLE update5 hours ago
Origin
Flag of CNG. Cehui dili (CN / PRC)
ManufacturerDFH
BusCAST-2000?
MotorUnknown
Mass~1,000 kg wet, ~1,000 kg dry
Launch date (UTC)
2024-07-04 (2 weeks ago)
Launch vehicle
Chang Zheng 6A
Launch site
Taiyaun Space Center, China (TSC)
Object type
Payload
Rocket body
Debris
Radar Cross SectionLarge (>1 m²)
Predictive object data (real-time)
Latitude79.82384°
Longitude64.02567°
Altitude617.895 km
Speed7.557 km/s
Apparent Right ascension10h 21m 12s
Apparent Declination28° 57' 18"
Sunlit
Object is in daylight
Predictive observer data (real-time)
Local Sidereal Time23:18:03
Azimuth13.206° NNE
Elevation-19.872°
Doppler factor1
Orbital elements
Apogee603.367 km
Perigee601.581 km
Semi-major axis6,980.611 km
Eccentricity0.0001279
Inclination97.8288°
RAAN209.4653°
Arg. of periapsis89.2846°
True anomaly270.83705°
Mean anomaly270.8517°
Mean motion3.72137 °/min
BSTAR0.00014478
Period96.74 mins
Definitive object data (Epoch: 2024-07-21T05:03:17.193Z)
Latitude-0.00003°
Longitude-165.81732°
Altitude608.467 km
Speed7.555 km/s
True Right ascension13h 57m 51s
True Declination0° 00' 00"
Sunlit
Object was in daylight at TLE epoch
TLE from 5 hours ago
0 TIANHUI 5C
1 60211U 24126A   24203.21061567  .00001261  00000-0  14478-3 0  9991
2 60211  97.8288 209.4653 0001279  89.2846 270.8517 14.87596951  2411
Epoch: 2024-07-21T05:03Z
No data available
Other satellites on launch #126 in the year 2024 (2024-07-04 UTC)

TIANHUI 5C Visibility forecast

Observer location: 39.9160978°, -105.1181434

TIANHUI 5C is not visible in the next 10 days
Span
Click to sort rows by Start time (UTC) header in descending order
Start Az.
Max El. time (UTC)
Max El. Az.
Max El.
End time (UTC)
End Az.